レモン彗星

C/2012 F6 ( Lemmon )

English version
Home page
Updated on August 16, 2014

---------------------------------------------------------------------

・ プロフィール

発見日 2012年3月23日
発見光度 20.7等
発見者 A. R. Gibbs (Mount Lemmon Survey)

・ 写真集

・ 軌道要素

Epoch 2013 Mar. 9.0 TT = JDT 2456360.5
T 2013 Mar. 24.51505 TT                                 MPC
q   0.7312476            (2000.0)            P               Q
z  +0.0020238      Peri.  304.98801     +0.46128519     +0.76193479
 +/-0.0000001      Node   332.71473     -0.00393811     -0.51061790
e   0.9985201      Incl.   82.60800     -0.88724318     +0.39840273
From 3029 observations 2012 Jan. 22-2014 July 24, mean residual 0".4.

・ 星図

・ 光度変化

        m1 = 4.5 + 5 logΔ + 18.0 log r  [   ,-50]  (              〜2013年 2月 2日)
        m1 = 5.2 + 5 logΔ + 10.0 log r  [-50,  0]  (2013年 2月 2日〜2013年 3月24日)
        m1 = 5.2 + 5 logΔ +  9.5 log r  [  0,240]  (2013年 3月24日〜2013年11月19日)
        m1 = 3.5 + 5 logΔ + 15.0 log r  [240,   ]  (2013年11月19日〜              )

        ※ 灰色の曲線は、m1 = 4.5 + 5 logΔ + 18.0 log r の光度曲線です。

---------------------------------------------------------------------

軌道要素はM.P.E.C. 2014-P41に掲載されたものです。
星図はステラナビゲータ Ver.8 (アストロアーツ) で作成したものです。
光度グラフはComet for Windowsで作成したものです。

---------------------------------------------------------------------

Copyright(C) Seiichi Yoshida (comet@aerith.net). All rights reserved.